TimeCDT,TemperatureF,Dew PointF,Humidity,Sea Level PressureIn,VisibilityMPH,Wind Direction,Wind SpeedMPH,Gust SpeedMPH,PrecipitationIn,Events,Conditions,WindDirDegrees,DateUTC
12:15 AM,38.5,37.4,96,30.03,10.0,Calm,Calm,-,N/A,,Clear,0,2013-09-26 05:15:00
12:35 AM,39.4,38.3,96,30.04,3.0,Calm,Calm,-,N/A,,Clear,0,2013-09-26 05:35:00
12:55 AM,42.1,41.0,96,30.03,2.5,Calm,Calm,-,N/A,,Clear,0,2013-09-26 05:55:00
1:15 AM,40.6,39.6,96,30.03,0.5,Calm,Calm,-,N/A,Fog,Fog,0,2013-09-26 06:15:00
1:35 AM,41.2,40.1,96,30.04,1.2,Calm,Calm,-,N/A,,Mist,0,2013-09-26 06:35:00
1:55 AM,36.1,34.9,95,30.04,0.2,Calm,Calm,-,N/A,Fog,Fog,0,2013-09-26 06:55:00
2:15 AM,37.6,36.5,96,30.04,1.0,Calm,Calm,-,N/A,,Mist,0,2013-09-26 07:15:00
2:35 AM,35.8,34.7,96,30.04,0.5,Calm,Calm,-,N/A,Fog,Fog,0,2013-09-26 07:35:00
2:55 AM,35.2,34.2,96,30.04,0.2,Calm,Calm,-,N/A,Fog,Fog,0,2013-09-26 07:55:00
3:15 AM,35.6,34.7,97,30.05,0.2,Calm,Calm,-,N/A,Fog,Fog,0,2013-09-26 08:15:00
3:35 AM,35.1,34.2,97,30.05,0.2,Calm,Calm,-,N/A,Fog,Fog,0,2013-09-26 08:35:00
3:55 AM,34.2,33.3,97,30.06,0.2,Calm,Calm,-,N/A,Fog,Fog,0,2013-09-26 08:55:00
4:15 AM,34.7,33.8,97,30.06,0.2,Calm,Calm,-,N/A,Fog,Fog,0,2013-09-26 09:15:00
4:35 AM,35.8,34.9,97,30.07,0.2,Calm,Calm,-,N/A,Fog,Fog,0,2013-09-26 09:35:00
4:55 AM,36.0,35.1,97,30.07,0.2,Calm,Calm,-,N/A,Fog,Fog,0,2013-09-26 09:55:00
5:15 AM,36.3,35.4,97,30.06,0.2,Calm,Calm,-,N/A,Fog,Fog,0,2013-09-26 10:15:00
5:35 AM,37.2,36.3,97,30.07,0.2,Calm,Calm,-,N/A,Fog,Fog,0,2013-09-26 10:35:00
5:55 AM,44.6,43.9,97,30.06,0.2,SE,3.5,-,N/A,,Overcast,130,2013-09-26 10:55:00
6:15 AM,46.4,45.5,97,30.06,0.5,Calm,Calm,-,N/A,Rain,Light Rain,0,2013-09-26 11:15:00
6:35 AM,46.4,45.5,97,30.07,0.5,SE,4.6,-,N/A,,Drizzle,130,2013-09-26 11:35:00
6:55 AM,45.9,45.1,97,30.07,0.5,SE,3.5,-,N/A,Fog,Fog,130,2013-09-26 11:55:00
7:15 AM,46.0,45.5,98,30.07,0.2,Calm,Calm,-,N/A,Fog,Fog,0,2013-09-26 12:15:00
7:35 AM,46.4,45.5,97,30.08,0.8,Calm,Calm,-,N/A,,Overcast,0,2013-09-26 12:35:00
7:55 AM,46.4,45.5,97,30.08,1.2,SE,4.6,-,N/A,,Overcast,140,2013-09-26 12:55:00
8:15 AM,46.8,46.0,97,30.08,1.0,SE,4.6,-,N/A,,Overcast,130,2013-09-26 13:15:00
8:35 AM,47.5,46.8,97,30.08,2.5,Calm,Calm,-,N/A,,Overcast,0,2013-09-26 13:35:00
8:55 AM,48.7,48.2,98,30.08,5.0,SE,3.5,-,N/A,,Mostly Cloudy,140,2013-09-26 13:55:00
9:15 AM,49.5,48.7,97,30.08,7.0,ESE,3.5,-,N/A,,Scattered Clouds,120,2013-09-26 14:15:00
9:35 AM,51.1,50.4,97,30.08,10.0,SE,4.6,-,N/A,,Clear,130,2013-09-26 14:35:00
9:55 AM,53.1,52.2,97,30.08,10.0,SE,4.6,-,N/A,,Clear,140,2013-09-26 14:55:00
10:15 AM,55.9,54.9,96,30.08,10.0,SSE,4.6,-,N/A,,Clear,150,2013-09-26 15:15:00
10:35 AM,59.4,51.8,76,30.08,10.0,South,6.9,-,N/A,,Clear,170,2013-09-26 15:35:00
10:55 AM,60.8,51.1,70,30.08,10.0,SE,8.1,-,N/A,,Clear,140,2013-09-26 15:55:00
11:15 AM,62.8,52.0,68,30.08,10.0,SSE,3.5,-,N/A,,Clear,150,2013-09-26 16:15:00
11:35 AM,64.2,51.8,64,30.08,10.0,South,6.9,-,N/A,,Clear,170,2013-09-26 16:35:00
11:55 AM,65.3,51.3,60,30.07,10.0,South,4.6,-,N/A,,Clear,170,2013-09-26 16:55:00
12:15 PM,66.0,51.3,59,30.07,10.0,SSE,6.9,-,N/A,,Clear,150,2013-09-26 17:15:00
12:35 PM,67.1,52.0,58,30.07,10.0,SSE,4.6,-,N/A,,Clear,160,2013-09-26 17:35:00
12:55 PM,67.1,50.7,56,30.07,10.0,SSE,5.8,-,N/A,,Clear,150,2013-09-26 17:55:00
1:15 PM,67.6,50.0,53,30.06,10.0,SSE,5.8,16.1,N/A,,Clear,150,2013-09-26 18:15:00
1:35 PM,68.2,50.2,53,30.06,10.0,South,5.8,-,N/A,,Clear,170,2013-09-26 18:35:00
1:55 PM,68.7,51.4,54,30.05,7.0,SE,9.2,-,N/A,,Clear,140,2013-09-26 18:55:00
2:15 PM,69.1,50.2,51,30.05,10.0,SE,8.1,-,N/A,,Clear,140,2013-09-26 19:15:00
2:35 PM,69.6,49.8,49,30.05,10.0,SE,5.8,-,N/A,,Clear,140,2013-09-26 19:35:00
2:55 PM,69.8,50.4,50,30.05,7.0,SE,5.8,-,N/A,,Clear,140,2013-09-26 19:55:00
3:15 PM,70.5,50.7,49,30.04,10.0,SSE,3.5,-,N/A,,Clear,150,2013-09-26 20:15:00
3:35 PM,70.2,50.5,50,30.04,10.0,SSE,4.6,-,N/A,,Clear,160,2013-09-26 20:35:00
3:55 PM,70.0,50.4,50,30.04,10.0,SSE,3.5,-,N/A,,Clear,150,2013-09-26 20:55:00
4:15 PM,69.8,51.1,51,30.04,10.0,SSE,4.6,-,N/A,,Clear,150,2013-09-26 21:15:00
4:35 PM,69.3,50.5,51,30.04,10.0,SSE,4.6,-,N/A,,Clear,150,2013-09-26 21:35:00
4:55 PM,68.7,51.1,53,30.04,10.0,SE,6.9,-,N/A,,Clear,140,2013-09-26 21:55:00
5:15 PM,68.0,51.3,55,30.04,10.0,Calm,Calm,-,N/A,,Clear,0,2013-09-26 22:15:00
5:35 PM,67.3,52.0,58,30.05,10.0,Calm,Calm,-,N/A,,Clear,0,2013-09-26 22:35:00
5:55 PM,66.4,52.5,61,30.05,10.0,SE,3.5,-,N/A,,Clear,130,2013-09-26 22:55:00
6:15 PM,64.2,52.9,67,30.05,10.0,SE,4.6,-,N/A,,Clear,130,2013-09-26 23:15:00
6:35 PM,61.7,52.7,72,30.05,10.0,Calm,Calm,-,N/A,,Clear,0,2013-09-26 23:35:00
6:55 PM,59.2,52.3,78,30.05,10.0,Calm,Calm,-,N/A,,Clear,0,2013-09-26 23:55:00
7:15 PM,59.0,52.7,80,30.04,10.0,ESE,3.5,-,N/A,,Clear,120,2013-09-27 00:15:00
7:35 PM,59.4,52.7,79,30.04,10.0,ESE,4.6,-,N/A,,Clear,120,2013-09-27 00:35:00
7:55 PM,59.2,52.7,79,30.05,10.0,ESE,4.6,-,N/A,,Clear,120,2013-09-27 00:55:00
8:15 PM,59.0,52.5,79,30.05,10.0,ESE,3.5,-,N/A,,Clear,120,2013-09-27 01:15:00
8:35 PM,57.9,51.8,80,30.05,10.0,Calm,Calm,-,N/A,,Clear,0,2013-09-27 01:35:00
8:55 PM,55.9,51.1,84,30.06,10.0,Calm,Calm,-,N/A,,Clear,0,2013-09-27 01:55:00
9:15 PM,55.0,50.9,86,30.06,10.0,Calm,Calm,-,N/A,,Clear,0,2013-09-27 02:15:00
9:35 PM,54.3,50.4,86,30.06,10.0,Calm,Calm,-,N/A,,Clear,0,2013-09-27 02:35:00
9:55 PM,55.2,50.5,84,30.07,10.0,ESE,3.5,-,N/A,,Clear,120,2013-09-27 02:55:00
10:15 PM,55.8,50.5,83,30.07,10.0,ESE,4.6,-,N/A,,Clear,120,2013-09-27 03:15:00
10:35 PM,55.0,50.5,85,30.07,10.0,SE,4.6,-,N/A,,Clear,130,2013-09-27 03:35:00
10:55 PM,54.9,50.9,86,30.07,10.0,SE,3.5,-,N/A,,Clear,130,2013-09-27 03:55:00
11:15 PM,54.7,51.1,88,30.07,10.0,SE,3.5,-,N/A,,Clear,130,2013-09-27 04:15:00
11:35 PM,54.9,51.6,89,30.08,10.0,Calm,Calm,-,N/A,,Clear,0,2013-09-27 04:35:00
11:55 PM,54.7,51.8,90,30.08,10.0,SE,3.5,-,N/A,,Clear,130,2013-09-27 04:55:00